Weather in Obuasi

Ghana     6°11′35″N   1°41′35″W
temp.,
°C
wind,
m/s
gust,
m/s
humid.,
%
clouds,
%
prec.,
mm/h
press.,
hPa
HPBL,
m
10 august, wed
wed1000:00+22ssw2791100 0.1 1015458
03:00+22sw289383 0.0 1013519
06:00+21ssw159864 0.1 1015212
09:00+25sw247453 0.1 1015837
12:00+29sw235780 0.4 10141469
15:00+28sw236189 0.3 1011990
18:00+25ssw2578100 0.4 1011196
21:00+22ssw178678 0.1 1014269
11 august, thu
thu1100:00+21sw289152 0.1 1015414
03:00+20wsw1697100 0.0 1014261
06:00+19sw1299100 0.0 101572
09:00+25wsw246797 0.0 1016896
12:00+30sw234986 0.0 10141686
15:00+29w235273 0.0 10111281
18:00+26sw2665100 0.0 1011333
21:00+23sw287514 0.0 1014449
12 august, fri
fri1200:00+21sw2108689 0.0 1014490
03:00+20wsw2992100 0.0 1014530
06:00+20wsw189555 0.0 1015502
09:00+24wsw3571100 0.0 1015906
12:00+26sw2464100 0.1 10151297
15:00+28wsw3458100 0.1 10121321
18:00+25sw2571100 0.1 1013169
21:00+23sw2879100 0.0 1015353
13 august, sat
sat1300:00+21sw298699 0.0 1015437
03:00+20sw189479 0.0 1014503
06:00+20wsw2895100 0.0 1015483
09:00+24sw357581 0.1 1016895
12:00+26wsw3466100 0.2 10151206
15:00+27sw246163 0.1 10131205
18:00+25sw137331 0.2 1013101
21:00+22sw288532 0.0 1016357
14 august, sun
sun1400:00+21sw289019 0.0 1016400
03:00+20wsw299418 0.0 1014456
06:00+20wsw1899100 0.3 1015365
09:00+22wsw279197 0.3 1016539
12:00+27w246390 0.3 10141262
15:00+26w258239 1.6 1010529
18:00+23sw269280 4.3 1011135
21:00+21sw2897100 2.3 1013344